Time,TemperatureF,DewpointF,PressureIn,WindDirection,WindDirectionDegrees,WindSpeedMPH,WindSpeedGustMPH,Humidity,HourlyPrecipIn,Conditions,Clouds,dailyrainin,SoftwareType,DateUTC
2013-01-18 00:02:00,22.0,21.0,-100.00,SE,145,3.0,4.0,95,0.00,,,-99.99,,2013-01-18 06:02:00,
2013-01-18 00:12:00,22.0,21.0,-100.00,SE,140,2.0,4.0,95,0.00,,,-99.99,,2013-01-18 06:12:00,
2013-01-18 00:22:00,21.0,20.0,-100.00,SE,130,3.0,4.0,95,0.00,,,-99.99,,2013-01-18 06:22:00,
2013-01-18 00:32:00,21.0,20.0,-100.00,SE,125,1.0,3.0,95,0.00,,,-99.99,,2013-01-18 06:32:00,
2013-01-18 00:43:00,21.0,20.0,-100.00,SE,125,1.0,3.0,95,0.00,,,-99.99,,2013-01-18 06:43:00,
2013-01-18 00:52:00,21.0,20.0,-100.00,SSE,155,2.0,3.0,95,0.00,,,-99.99,,2013-01-18 06:52:00,
2013-01-18 01:02:00,21.0,20.0,-100.00,SSE,155,2.0,3.0,95,0.00,,,-99.99,,2013-01-18 07:02:00,
2013-01-18 01:12:00,21.0,20.0,-100.00,SE,125,4.0,6.0,95,0.00,,,-99.99,,2013-01-18 07:12:00,
2013-01-18 01:22:00,21.0,20.0,-100.00,SE,140,3.0,5.0,95,0.00,,,-99.99,,2013-01-18 07:22:00,
2013-01-18 01:32:00,21.0,20.0,-100.00,SE,130,2.0,4.0,95,0.00,,,-99.99,,2013-01-18 07:32:00,
2013-01-18 01:42:00,21.0,20.0,-100.00,SE,130,2.0,4.0,95,0.00,,,-99.99,,2013-01-18 07:42:00,
2013-01-18 01:52:00,23.0,22.0,-100.00,South,190,3.0,6.0,95,0.00,,,-99.99,,2013-01-18 07:52:00,
2013-01-18 02:02:00,23.0,22.0,-100.00,South,190,3.0,6.0,95,0.00,,,-99.99,,2013-01-18 08:02:00,
2013-01-18 02:12:00,27.0,24.0,-100.00,SW,225,10.0,13.0,89,0.00,,,-99.99,,2013-01-18 08:12:00,
2013-01-18 02:22:00,29.0,24.0,-100.00,SW,230,12.0,15.0,80,0.00,,,-99.99,,2013-01-18 08:22:00,
2013-01-18 02:32:00,31.0,26.0,-100.00,SW,225,11.0,16.0,79,0.00,,,-99.99,,2013-01-18 08:32:00,
2013-01-18 02:42:00,31.0,26.0,-100.00,SW,225,11.0,16.0,79,0.00,,,-99.99,,2013-01-18 08:42:00,
2013-01-18 02:52:00,32.0,26.0,-100.00,SW,235,13.0,17.0,79,0.00,,,-99.99,,2013-01-18 08:52:00,
2013-01-18 03:02:00,32.0,26.0,-100.00,SW,235,13.0,17.0,79,0.00,,,-99.99,,2013-01-18 09:02:00,
2013-01-18 03:12:00,32.0,27.0,-100.00,SW,220,11.0,15.0,82,0.00,,,-99.99,,2013-01-18 09:12:00,
2013-01-18 03:22:00,32.0,27.0,-100.00,SW,220,11.0,17.0,81,0.00,,,-99.99,,2013-01-18 09:22:00,
2013-01-18 03:33:00,33.0,28.0,-100.00,SW,225,11.0,18.0,81,0.00,,,-99.99,,2013-01-18 09:33:00,
2013-01-18 03:42:00,33.0,28.0,-100.00,SW,225,11.0,18.0,81,0.00,,,-99.99,,2013-01-18 09:42:00,
2013-01-18 03:52:00,33.0,28.0,-100.00,SW,230,11.0,19.0,82,0.00,,,-99.99,,2013-01-18 09:52:00,
2013-01-18 04:02:00,33.0,28.0,-100.00,SW,230,11.0,19.0,82,0.00,,,-99.99,,2013-01-18 10:02:00,
2013-01-18 04:12:00,33.0,28.0,-100.00,SW,230,10.0,18.0,82,0.00,,,-99.99,,2013-01-18 10:12:00,
2013-01-18 04:22:00,33.0,28.0,-100.00,SW,225,12.0,19.0,81,0.00,,,-99.99,,2013-01-18 10:22:00,
2013-01-18 04:32:00,34.0,29.0,-100.00,SW,230,12.0,22.0,81,0.00,,,-99.99,,2013-01-18 10:32:00,
2013-01-18 04:42:00,34.0,29.0,-100.00,SW,230,12.0,22.0,81,0.00,,,-99.99,,2013-01-18 10:42:00,
2013-01-18 04:52:00,34.0,29.0,-100.00,SW,220,12.0,19.0,82,0.00,,,-99.99,,2013-01-18 10:52:00,
2013-01-18 05:02:00,34.0,29.0,-100.00,SW,220,12.0,19.0,82,0.00,,,-99.99,,2013-01-18 11:02:00,
2013-01-18 05:12:00,34.0,29.0,-100.00,SW,220,9.0,16.0,84,0.00,,,-99.99,,2013-01-18 11:12:00,
2013-01-18 05:22:00,33.0,30.0,-100.00,SSW,205,6.0,12.0,85,0.00,,,-99.99,,2013-01-18 11:22:00,
2013-01-18 05:32:00,33.0,30.0,-100.00,SW,235,9.0,12.0,86,0.00,,,-99.99,,2013-01-18 11:32:00,
2013-01-18 05:42:00,34.0,30.0,-100.00,SW,215,7.0,16.0,86,0.00,,,-99.99,,2013-01-18 11:42:00,
2013-01-18 05:52:00,33.0,31.0,-100.00,SW,235,4.0,12.0,88,0.00,,,-99.99,,2013-01-18 11:52:00,
2013-01-18 06:02:00,33.0,31.0,-100.00,SW,235,4.0,12.0,88,0.00,,,-99.99,,2013-01-18 12:02:00,
2013-01-18 06:12:00,34.0,31.0,-100.00,SW,220,9.0,12.0,86,0.00,,,-99.99,,2013-01-18 12:12:00,
2013-01-18 06:22:00,35.0,31.0,-100.00,SSW,210,9.0,16.0,86,0.00,,,-99.99,,2013-01-18 12:22:00,
2013-01-18 06:33:00,35.0,31.0,-100.00,SW,230,10.0,17.0,84,0.00,,,-99.99,,2013-01-18 12:33:00,
2013-01-18 06:42:00,36.0,31.0,-100.00,SW,215,13.0,21.0,82,0.00,,,-99.99,,2013-01-18 12:42:00,
2013-01-18 06:52:00,36.0,30.0,-100.00,SW,225,17.0,22.0,81,0.00,,,-99.99,,2013-01-18 12:52:00,
2013-01-18 07:03:00,36.0,30.0,-100.00,SW,225,17.0,22.0,81,0.00,,,-99.99,,2013-01-18 13:03:00,
2013-01-18 07:12:00,36.0,31.0,-100.00,SW,225,14.0,24.0,81,0.00,,,-99.99,,2013-01-18 13:12:00,
2013-01-18 07:23:00,36.0,31.0,-100.00,SW,225,17.0,24.0,80,0.00,,,-99.99,,2013-01-18 13:23:00,
2013-01-18 07:33:00,36.0,31.0,-100.00,SW,215,18.0,29.0,80,0.00,,,-99.99,,2013-01-18 13:33:00,
2013-01-18 07:43:00,36.0,31.0,-100.00,SW,215,18.0,29.0,80,0.00,,,-99.99,,2013-01-18 13:43:00,
2013-01-18 07:53:00,36.0,31.0,-100.00,SW,220,14.0,23.0,81,0.00,,,-99.99,,2013-01-18 13:53:00,
2013-01-18 08:03:00,36.0,31.0,-100.00,SW,220,14.0,23.0,81,0.00,,,-99.99,,2013-01-18 14:03:00,
2013-01-18 08:12:00,36.0,31.0,-100.00,SW,220,16.0,24.0,80,0.00,,,-99.99,,2013-01-18 14:12:00,
2013-01-18 08:22:00,37.0,31.0,-100.00,SW,230,14.0,24.0,80,0.00,,,-99.99,,2013-01-18 14:22:00,
2013-01-18 08:33:00,38.0,31.0,-100.00,SW,230,16.0,26.0,77,0.00,,,-99.99,,2013-01-18 14:33:00,
2013-01-18 08:42:00,38.0,31.0,-100.00,SW,230,16.0,26.0,77,0.00,,,-99.99,,2013-01-18 14:42:00,
2013-01-18 08:53:00,39.0,32.0,-100.00,SW,225,18.0,26.0,75,0.00,,,-99.99,,2013-01-18 14:53:00,
2013-01-18 09:03:00,39.0,32.0,-100.00,SW,225,18.0,26.0,75,0.00,,,-99.99,,2013-01-18 15:03:00,
2013-01-18 09:12:00,40.0,32.0,-100.00,SW,225,16.0,27.0,73,0.00,,,-99.99,,2013-01-18 15:12:00,
2013-01-18 09:23:00,40.0,32.0,-100.00,SW,230,14.0,30.0,72,0.00,,,-99.99,,2013-01-18 15:23:00,
2013-01-18 09:33:00,41.0,32.0,-100.00,SW,230,18.0,37.0,69,0.00,,,-99.99,,2013-01-18 15:33:00,
2013-01-18 09:43:00,41.0,32.0,-100.00,SW,230,18.0,37.0,69,0.00,,,-99.99,,2013-01-18 15:43:00,
2013-01-18 09:53:00,41.0,32.0,-100.00,SW,215,16.0,28.0,69,0.00,,,-99.99,,2013-01-18 15:53:00,
2013-01-18 10:03:00,41.0,32.0,-100.00,SW,215,16.0,28.0,69,0.00,,,-99.99,,2013-01-18 16:03:00,
2013-01-18 10:12:00,42.0,32.0,-100.00,SW,230,23.0,32.0,66,0.00,,,-99.99,,2013-01-18 16:12:00,
2013-01-18 10:23:00,43.0,33.0,-100.00,SW,235,17.0,32.0,66,0.00,,,-99.99,,2013-01-18 16:23:00,
2013-01-18 10:33:00,45.0,33.0,-100.00,SW,230,19.0,30.0,61,0.00,,,-99.99,,2013-01-18 16:33:00,
2013-01-18 10:42:00,45.0,33.0,-100.00,SW,230,19.0,30.0,61,0.00,,,-99.99,,2013-01-18 16:42:00,
2013-01-18 10:52:00,46.0,33.0,-100.00,SW,235,17.0,30.0,59,0.00,,,-99.99,,2013-01-18 16:52:00,
2013-01-18 11:03:00,46.0,33.0,-100.00,SW,235,17.0,30.0,59,0.00,,,-99.99,,2013-01-18 17:03:00,
2013-01-18 11:13:00,46.0,33.0,-100.00,WSW,240,22.0,32.0,58,0.00,,,-99.99,,2013-01-18 17:13:00,
2013-01-18 11:23:00,47.0,33.0,-100.00,SW,215,20.0,32.0,56,0.00,,,-99.99,,2013-01-18 17:23:00,
2013-01-18 11:33:00,47.0,33.0,-100.00,SW,230,14.0,29.0,57,0.00,,,-99.99,,2013-01-18 17:33:00,
2013-01-18 11:42:00,47.0,33.0,-100.00,SW,230,14.0,29.0,57,0.00,,,-99.99,,2013-01-18 17:42:00,
2013-01-18 11:53:00,48.0,32.0,-100.00,SW,220,22.0,34.0,54,0.00,,,-99.99,,2013-01-18 17:53:00,
2013-01-18 12:03:00,48.0,32.0,-100.00,SW,220,22.0,34.0,54,0.00,,,-99.99,,2013-01-18 18:03:00,
2013-01-18 12:12:00,49.0,32.0,-100.00,SW,235,23.0,35.0,52,0.00,,,-99.99,,2013-01-18 18:12:00,
2013-01-18 12:23:00,49.0,32.0,-100.00,SW,230,25.0,36.0,50,0.00,,,-99.99,,2013-01-18 18:23:00,
2013-01-18 12:33:00,51.0,32.0,-100.00,SW,225,24.0,41.0,49,0.00,,,-99.99,,2013-01-18 18:33:00,
2013-01-18 12:43:00,51.0,32.0,-100.00,SW,225,24.0,41.0,49,0.00,,,-99.99,,2013-01-18 18:43:00,
2013-01-18 12:52:00,51.0,32.0,-100.00,SW,230,27.0,42.0,48,0.00,,,-99.99,,2013-01-18 18:52:00,
2013-01-18 13:03:00,51.0,32.0,-100.00,SW,230,27.0,42.0,48,0.00,,,-99.99,,2013-01-18 19:03:00,
2013-01-18 13:12:00,51.0,32.0,-100.00,SW,235,22.0,34.0,47,0.00,,,-99.99,,2013-01-18 19:12:00,
2013-01-18 13:22:00,52.0,33.0,-100.00,WSW,240,24.0,34.0,47,0.00,,,-99.99,,2013-01-18 19:22:00,
2013-01-18 13:33:00,53.0,33.0,-100.00,SW,230,22.0,29.0,46,0.00,,,-99.99,,2013-01-18 19:33:00,
2013-01-18 13:42:00,53.0,33.0,-100.00,SW,230,22.0,29.0,46,0.00,,,-99.99,,2013-01-18 19:42:00,
2013-01-18 13:52:00,54.0,33.0,-100.00,SW,230,13.0,34.0,44,0.00,,,-99.99,,2013-01-18 19:52:00,
2013-01-18 14:03:00,54.0,33.0,-100.00,SW,230,13.0,34.0,44,0.00,,,-99.99,,2013-01-18 20:03:00,
2013-01-18 14:12:00,55.0,33.0,-100.00,WSW,240,22.0,34.0,43,0.00,,,-99.99,,2013-01-18 20:12:00,
2013-01-18 14:23:00,55.0,33.0,-100.00,WSW,245,21.0,31.0,42,0.00,,,-99.99,,2013-01-18 20:23:00,
2013-01-18 14:33:00,56.0,34.0,-100.00,WSW,255,21.0,31.0,42,0.00,,,-99.99,,2013-01-18 20:33:00,
2013-01-18 14:42:00,56.0,34.0,-100.00,WSW,255,21.0,31.0,42,0.00,,,-99.99,,2013-01-18 20:42:00,
2013-01-18 14:52:00,56.0,34.0,-100.00,WSW,250,19.0,29.0,42,0.00,,,-99.99,,2013-01-18 20:52:00,
2013-01-18 15:03:00,56.0,34.0,-100.00,WSW,250,19.0,29.0,42,0.00,,,-99.99,,2013-01-18 21:03:00,
2013-01-18 15:12:00,57.0,34.0,-100.00,SW,230,17.0,28.0,42,0.00,,,-99.99,,2013-01-18 21:12:00,
2013-01-18 15:22:00,57.0,34.0,-100.00,WSW,245,17.0,26.0,41,0.00,,,-99.99,,2013-01-18 21:22:00,
2013-01-18 15:33:00,58.0,34.0,-100.00,WSW,255,19.0,32.0,40,0.00,,,-99.99,,2013-01-18 21:33:00,
2013-01-18 15:42:00,58.0,34.0,-100.00,WSW,255,19.0,32.0,40,0.00,,,-99.99,,2013-01-18 21:42:00,
2013-01-18 15:52:00,57.0,34.0,-100.00,WSW,255,21.0,33.0,40,0.00,,,-99.99,,2013-01-18 21:52:00,
2013-01-18 16:03:00,57.0,34.0,-100.00,WSW,255,21.0,33.0,40,0.00,,,-99.99,,2013-01-18 22:03:00,
2013-01-18 16:12:00,57.0,34.0,-100.00,West,270,16.0,33.0,41,0.00,,,-99.99,,2013-01-18 22:12:00,
2013-01-18 16:22:00,57.0,34.0,-100.00,WSW,245,17.0,27.0,41,0.00,,,-99.99,,2013-01-18 22:22:00,
2013-01-18 16:32:00,57.0,34.0,-100.00,WSW,240,12.0,29.0,42,0.00,,,-99.99,,2013-01-18 22:32:00,
2013-01-18 16:42:00,56.0,34.0,-100.00,WSW,240,15.0,23.0,42,0.00,,,-99.99,,2013-01-18 22:42:00,
2013-01-18 16:52:00,56.0,35.0,-100.00,SW,230,9.0,19.0,44,0.00,,,-99.99,,2013-01-18 22:52:00,
2013-01-18 17:03:00,56.0,35.0,-100.00,SW,230,9.0,19.0,44,0.00,,,-99.99,,2013-01-18 23:03:00,
2013-01-18 17:12:00,55.0,35.0,-100.00,SW,235,13.0,23.0,45,0.00,,,-99.99,,2013-01-18 23:12:00,
2013-01-18 17:22:00,55.0,35.0,-100.00,WSW,240,12.0,21.0,45,0.00,,,-99.99,,2013-01-18 23:22:00,
2013-01-18 17:33:00,54.0,35.0,-100.00,WSW,255,12.0,20.0,48,0.00,,,-99.99,,2013-01-18 23:33:00,
2013-01-18 17:42:00,54.0,35.0,-100.00,WSW,255,12.0,20.0,48,0.00,,,-99.99,,2013-01-18 23:42:00,
2013-01-18 17:52:00,53.0,35.0,-100.00,SW,230,12.0,23.0,49,0.00,,,-99.99,,2013-01-18 23:52:00,
2013-01-18 18:02:00,53.0,35.0,-100.00,SW,230,12.0,23.0,49,0.00,,,-99.99,,2013-01-19 00:02:00,
2013-01-18 18:12:00,53.0,35.0,-100.00,SW,235,13.0,21.0,49,0.00,,,-99.99,,2013-01-19 00:12:00,
2013-01-18 18:22:00,52.0,35.0,-100.00,SW,225,11.0,22.0,50,0.00,,,-99.99,,2013-01-19 00:22:00,
2013-01-18 18:33:00,52.0,35.0,-100.00,WSW,250,12.0,21.0,52,0.00,,,-99.99,,2013-01-19 00:33:00,
2013-01-18 18:42:00,52.0,35.0,-100.00,WSW,250,12.0,21.0,52,0.00,,,-99.99,,2013-01-19 00:42:00,
2013-01-18 18:53:00,51.0,35.0,-100.00,WSW,245,11.0,21.0,52,0.00,,,-99.99,,2013-01-19 00:53:00,
2013-01-18 19:02:00,51.0,35.0,-100.00,WSW,245,11.0,21.0,52,0.00,,,-99.99,,2013-01-19 01:02:00,
2013-01-18 19:12:00,51.0,35.0,-100.00,SW,235,12.0,18.0,53,0.00,,,-99.99,,2013-01-19 01:12:00,
2013-01-18 19:22:00,51.0,35.0,-100.00,SW,225,12.0,17.0,55,0.00,,,-99.99,,2013-01-19 01:22:00,
2013-01-18 19:32:00,50.0,35.0,-100.00,SW,230,12.0,18.0,56,0.00,,,-99.99,,2013-01-19 01:32:00,
2013-01-18 19:42:00,50.0,35.0,-100.00,WSW,240,9.0,18.0,56,0.00,,,-99.99,,2013-01-19 01:42:00,
2013-01-18 19:52:00,50.0,35.0,-100.00,SW,230,12.0,20.0,56,0.00,,,-99.99,,2013-01-19 01:52:00,
2013-01-18 20:02:00,50.0,35.0,-100.00,SW,230,12.0,20.0,56,0.00,,,-99.99,,2013-01-19 02:02:00,
2013-01-18 20:12:00,50.0,35.0,-100.00,WSW,250,14.0,21.0,55,0.00,,,-99.99,,2013-01-19 02:12:00,
2013-01-18 20:22:00,50.0,35.0,-100.00,WSW,245,14.0,21.0,55,0.00,,,-99.99,,2013-01-19 02:22:00,
2013-01-18 20:33:00,49.0,35.0,-100.00,SW,230,14.0,19.0,57,0.00,,,-99.99,,2013-01-19 02:33:00,
2013-01-18 20:42:00,49.0,35.0,-100.00,SW,230,14.0,19.0,57,0.00,,,-99.99,,2013-01-19 02:42:00,
2013-01-18 20:52:00,48.0,35.0,-100.00,SW,230,9.0,18.0,60,0.00,,,-99.99,,2013-01-19 02:52:00,
2013-01-18 21:03:00,48.0,35.0,-100.00,SW,230,9.0,18.0,60,0.00,,,-99.99,,2013-01-19 03:03:00,
2013-01-18 21:12:00,48.0,35.0,-100.00,SW,235,12.0,23.0,60,0.00,,,-99.99,,2013-01-19 03:12:00,
2013-01-18 21:22:00,48.0,35.0,-100.00,WSW,240,12.0,19.0,60,0.00,,,-99.99,,2013-01-19 03:22:00,
2013-01-18 21:33:00,48.0,35.0,-100.00,WSW,250,12.0,19.0,61,0.00,,,-99.99,,2013-01-19 03:33:00,
2013-01-18 21:43:00,48.0,35.0,-100.00,WSW,250,12.0,19.0,61,0.00,,,-99.99,,2013-01-19 03:43:00,
2013-01-18 21:52:00,47.0,35.0,-100.00,SW,235,10.0,18.0,62,0.00,,,-99.99,,2013-01-19 03:52:00,
2013-01-18 22:02:00,47.0,35.0,-100.00,SW,235,10.0,18.0,62,0.00,,,-99.99,,2013-01-19 04:02:00,
2013-01-18 22:12:00,47.0,35.0,-100.00,SW,235,12.0,18.0,62,0.00,,,-99.99,,2013-01-19 04:12:00,
2013-01-18 22:22:00,47.0,35.0,-100.00,WSW,240,12.0,18.0,63,0.00,,,-99.99,,2013-01-19 04:22:00,
2013-01-18 22:32:00,47.0,35.0,-100.00,SW,235,10.0,17.0,64,0.00,,,-99.99,,2013-01-19 04:32:00,
2013-01-18 22:42:00,47.0,35.0,-100.00,SW,235,10.0,17.0,64,0.00,,,-99.99,,2013-01-19 04:42:00,
2013-01-18 22:52:00,47.0,36.0,-100.00,WSW,255,12.0,22.0,64,0.00,,,-99.99,,2013-01-19 04:52:00,
2013-01-18 23:03:00,47.0,36.0,-100.00,WSW,255,12.0,22.0,64,0.00,,,-99.99,,2013-01-19 05:03:00,
2013-01-18 23:12:00,47.0,35.0,-100.00,WSW,240,13.0,19.0,63,0.00,,,-99.99,,2013-01-19 05:12:00,
2013-01-18 23:22:00,47.0,35.0,-100.00,SW,235,10.0,17.0,64,0.00,,,-99.99,,2013-01-19 05:22:00,
2013-01-18 23:33:00,46.0,35.0,-100.00,WSW,250,9.0,17.0,65,0.00,,,-99.99,,2013-01-19 05:33:00,
2013-01-18 23:42:00,46.0,35.0,-100.00,WSW,250,9.0,17.0,65,0.00,,,-99.99,,2013-01-19 05:42:00,
2013-01-18 23:52:00,46.0,35.0,-100.00,WSW,245,10.0,17.0,65,0.00,,,-99.99,,2013-01-19 05:52:00,